Greybull, WY

11:08 PM MDT on April 30, 2017 (GMT -0600)
South Big Horn County

Weather History for KGEY - April, 2014

Change the Weather History Date:

Thursday, April 24, 2014

  Actual Average Record
Temperature  
Mean Temperature 49 °F 49 °F  
Max Temperature 66 °F 63 °F 86 °F (2012)
Min Temperature 31 °F 35 °F 25 °F (2002)
Degree Days  
Heating Degree Days 16 16  
Month to date heating degree days 458 468  
Since 1 July heating degree days 7250 7310  
Cooling Degree Days 0 0  
Month to date cooling degree days 0 0  
Year to date cooling degree days 0 0  
Moisture  
Dew Point 20 °F    
Average Humidity 39    
Maximum Humidity 63    
Minimum Humidity 14    
Precipitation  
Precipitation 0.00 in 0.03 in 0.17 in (2006)
Month to date precipitation 0.46 0.53  
Year to date precipitation 0.90 1.34  
Sea Level Pressure  
Sea Level Pressure 29.84 in    
Wind  
Wind Speed 9 mph (SE)    
Max Wind Speed 29 mph    
Max Gust Speed 34 mph    
Visibility 10 miles    
Events      
T = Trace of Precipitation, MM = Missing Value Source: NWS Daily Summary

Daily Weather History Graph

Daily Weather History Graph

Search for Another Location

Airport or City:

Trip Planner

Search our weather history database for the weather conditions in past years. The results will help you decide how hot, cold, wet, or windy it might be!

Date:

Astronomy

Apr. 24, 2014 Rise Set
Actual Time 6:13 AM MDT 8:08 PM MDT
Civil Twilight 5:42 AM MDT 8:39 PM MDT
Nautical Twilight 5:03 AM MDT 9:18 PM MDT
Astronomical Twilight 4:22 AM MDT 10:00 PM MDT
Moon 3:38 AM MDT (4/24) 3:16 PM MDT (4/24)
Length of Visible Light 14h 57m
Length of Day
13h 55m
Waning Crescent, 24% of the Moon is Illuminated
Apr 24
Waning Crescent
Apr 29
New
May 6
First Quarter
May 14
Full
May 21
Last Quarter

Hourly Weather History & Observations

Time (MDT) Temp. Windchill Dew Point Humidity Pressure Visibility Wind Dir Wind Speed Gust Speed Precip Events Conditions
12:53 AM 37.0 °F 31.6 °F 21.0 °F 52% 29.90 in 10.0 mi SE 6.9 mph - N/A   Clear
1:53 AM 37.0 °F 32.4 °F 19.9 °F 50% 29.90 in 10.0 mi SSE 5.8 mph - N/A   Clear
2:53 AM 35.1 °F 31.0 °F 21.0 °F 57% 29.91 in 10.0 mi SE 4.6 mph - N/A   Clear
3:53 AM 34.0 °F 29.8 °F 21.0 °F 59% 29.90 in 10.0 mi SE 4.6 mph - N/A   Clear
4:53 AM 32.0 °F 28.7 °F 21.9 °F 66% 29.91 in 10.0 mi ESE 3.5 mph - N/A   Clear
5:53 AM 32.0 °F - 21.0 °F 64% 29.91 in 10.0 mi Calm Calm - N/A   Clear
6:53 AM 33.1 °F - 21.0 °F 61% 29.93 in 10.0 mi Calm Calm - N/A   Clear
7:53 AM 37.9 °F 33.5 °F 21.0 °F 51% 29.94 in 10.0 mi NNE 5.8 mph - N/A   Clear
8:53 AM 43.0 °F 38.2 °F 21.0 °F 42% 29.93 in 10.0 mi East 8.1 mph - N/A   Clear
9:53 AM 50.0 °F - 21.0 °F 32% 29.90 in 10.0 mi East 9.2 mph - N/A   Clear
10:53 AM 54.0 °F - 17.1 °F 23% 29.87 in 10.0 mi ESE 11.5 mph 16.1 mph N/A   Clear
11:53 AM 55.9 °F - 14.0 °F 19% 29.86 in 10.0 mi SE 11.5 mph 17.3 mph N/A   Clear
12:53 PM 57.9 °F - 14.0 °F 18% 29.81 in 10.0 mi SSE 11.5 mph 18.4 mph N/A   Clear
1:53 PM 61.0 °F - 15.1 °F 17% 29.78 in 10.0 mi SSE 11.5 mph 19.6 mph N/A   Clear
2:53 PM 62.1 °F - 14.0 °F 15% 29.76 in 10.0 mi SW 8.1 mph - N/A   Overcast
3:53 PM 64.0 °F - 18.0 °F 17% 29.75 in 10.0 mi WNW 10.4 mph 17.3 mph N/A   Mostly Cloudy
4:53 PM 62.1 °F - 16.0 °F 17% 29.75 in 10.0 mi Variable 5.8 mph - N/A   Partly Cloudy
5:53 PM 64.9 °F - 19.9 °F 18% 29.74 in 10.0 mi West 24.2 mph 32.2 mph N/A   Mostly Cloudy
6:53 PM 61.0 °F - 21.9 °F 22% 29.77 in 10.0 mi West 18.4 mph 23.0 mph N/A   Clear
7:53 PM 57.9 °F - 24.1 °F 27% 29.78 in 10.0 mi West 17.3 mph - N/A   Clear
8:53 PM 55.9 °F - 25.0 °F 30% 29.80 in 10.0 mi West 17.3 mph - N/A   Clear
9:53 PM 52.0 °F - 27.0 °F 38% 29.81 in 10.0 mi North 10.4 mph - N/A   Clear
10:53 PM 51.1 °F - 27.0 °F 39% 29.80 in 10.0 mi NW 6.9 mph - N/A   Mostly Cloudy
11:53 PM 51.1 °F - 28.0 °F 41% 29.79 in 10.0 mi East 8.1 mph - N/A   Overcast